EW7133 Weather Reports


time (UTC)temp
C
wind
direction
speed
KPH
gust
KPH
rain 1hr
cm
rain 24hr
cm
rain mn
cm
humidity
%
barometer
mb
20260506044544 19 188 0.0 0.0 0.00 0.00 0.00 66 1008.4
20260506043027 20 190 0.0 0.0 0.00 0.00 0.00 66 1008.5
20260506041526 20 161 0.0 0.0 0.00 0.00 0.00 65 1008.2
20260506040010 20 246 0.0 0.0 0.00 0.00 0.00 63 1008.4
20260506034511 20 131 0.0 0.0 0.00 0.00 0.00 61 1008.4
20260506033051 21 259 0.0 0.0 0.00 0.00 0.00 59 1008.2
20260506031557 21 188 0.0 0.0 0.00 0.00 0.00 57 1008.2
20260506030036 21 170 0.0 0.0 0.00 0.00 0.00 55 1008.1
20260506024543 22 196 0.0 0.0 0.00 0.00 0.00 54 1008.2
20260506023014 22 205 0.0 0.0 0.00 0.00 0.00 54 1008.2
20260506021514 22 226 0.0 0.0 0.00 0.00 0.00 53 1008.1
20260506020056 22 178 0.0 0.0 0.00 0.00 0.00 52 1008.1
20260506014556 22 169 0.0 0.0 0.00 0.00 0.00 52 1008.1
20260506013044 22 187 0.0 0.0 0.00 0.00 0.00 52 1007.8
20260506011544 22 82 0.0 0.0 0.00 0.00 0.00 51 1007.6
20260506010046 23 190 0.0 0.0 0.00 0.00 0.00 49 1007.5
20260506004542 23 179 0.0 0.0 0.00 0.00 0.00 47 1007.3
20260506003042 23 360 0.0 0.0 0.00 0.00 0.00 46 1007.2
20260506001542 23 160 0.0 0.0 0.00 0.00 0.00 45 1007.0
20260506000041 24 177 0.0 0.0 0.00 0.00 0.00 43 1007.0
20260505234547 24 360 0.0 0.0 0.00 0.00 0.00 43 1006.9
20260505233023 24 260 0.0 0.0 0.00 0.00 0.00 43 1006.8
20260505231523 25 225 0.0 0.0 0.00 0.00 0.00 42 1006.8
20260505230015 25 217 0.0 0.0 0.00 0.00 0.00 43 1006.7
20260505224504 25 116 0.0 0.0 0.00 0.00 0.00 43 1006.6
20260505223046 25 215 0.0 0.0 0.00 0.00 0.00 42 1006.5
20260505221546 25 225 0.0 0.0 0.00 0.00 0.00 44 1006.3
20260505220032 25 167 0.0 0.0 0.00 0.00 0.00 41 1006.3
20260505214528 26 360 0.0 0.0 0.00 0.00 0.00 41 1006.3
20260505213011 26 187 0.0 0.0 0.00 0.00 0.00 41 1006.3
20260505211513 26 223 0.0 0.0 0.00 0.00 0.00 39 1006.1
20260505210051 27 234 0.0 0.0 0.00 0.00 0.00 39 1006.1
20260505204553 27 360 0.0 0.0 0.00 0.00 0.00 38 1005.9
20260505203032 27 237 0.0 0.0 0.00 0.00 0.00 38 1006.1
20260505201530 27 225 0.0 0.0 0.00 0.00 0.00 37 1006.1
20260505200013 27 191 0.0 0.0 0.00 0.00 0.00 37 1006.2
20260505194511 27 200 0.0 0.0 0.00 0.00 0.00 37 1006.3
20260505193110 27 222 0.0 0.0 0.00 0.00 0.00 34 1006.2
20260505191609 27 215 0.0 0.0 0.00 0.00 0.00 35 1006.3
20260505190050 27 163 0.0 0.0 0.00 0.00 0.00 37 1006.6
20260505184531 28 227 0.0 0.0 0.00 0.00 0.00 38 1006.7
20260505183035 28 360 0.0 0.0 0.00 0.00 0.00 39 1006.9
20260505181508 27 182 0.0 0.0 0.00 0.00 0.00 41 1007.1
20260505180006 27 256 0.0 0.0 0.00 0.00 0.00 41 1007.4
20260505174553 27 206 0.0 0.0 0.00 0.00 0.00 43 1007.6
20260505173046 27 199 0.0 0.0 0.00 0.00 0.00 44 1007.6
20260505171530 26 220 0.0 0.0 0.00 0.00 0.00 47 1007.7
20260505170023 26 242 0.0 0.0 0.00 0.00 0.00 50 1007.9
20260505164600 26 242 0.0 0.0 0.00 0.00 0.00 47 1008.2
20260505163056 25 360 0.0 0.0 0.00 0.00 0.00 51 1008.5
20260505161537 25 222 0.0 0.0 0.00 0.00 0.00 52 1008.6
20260505153012 23 252 0.0 0.0 0.00 0.00 0.00 56 1009.3
20260505151554 22 211 0.0 0.0 0.00 0.00 0.00 59 1009.4
20260505124550 17 268 0.0 0.0 0.00 0.00 0.00 74 1009.9
20260505123047 16 246 0.0 0.0 0.00 0.00 0.00 77 1010.0
20260505121533 16 241 0.0 0.0 0.00 0.00 0.00 79 1010.0
20260505120034 15 214 0.0 0.0 0.00 0.00 0.00 83 1009.6
20260505114532 15 98 0.0 0.0 0.00 0.00 0.00 82 1009.8
20260505113034 14 98 0.0 0.0 0.00 0.00 0.00 84 1009.8
20260505111531 13 89 0.0 0.0 0.00 0.00 0.00 89 1009.8
20260505101528 11 83 0.0 0.0 0.00 0.00 0.00 92 1008.9
20260505100032 12 71 0.0 0.0 0.00 0.00 0.00 90 1009.0
20260505094552 12 80 0.0 0.0 0.00 0.00 0.00 85 1009.5
20260505093101 12 240 0.0 0.0 0.00 0.00 0.00 82 1010.0
20260505091532 13 282 0.0 0.0 0.00 0.00 0.00 77 1009.6
20260505090031 13 89 0.0 0.0 0.00 0.00 0.00 76 1009.3
20260505084514 13 92 0.0 0.0 0.00 0.00 0.00 76 1009.2
20260505083013 13 92 0.0 0.0 0.00 0.00 0.00 75 1008.9
20260505081614 13 170 0.0 0.0 0.00 0.00 0.00 72 1008.8
20260505074536 14 202 0.0 0.0 0.00 0.00 0.00 70 1008.9
20260505073039 14 201 0.0 0.0 0.00 0.00 0.00 69 1009.0
20260505071517 15 200 0.0 0.0 0.00 0.00 0.00 68 1008.9
20260505070017 15 360 0.0 0.0 0.00 0.00 0.00 67 1008.8
20260505064559 14 251 0.0 0.0 0.00 0.00 0.00 68 1008.9
20260505063114 13 241 0.0 0.0 0.00 0.00 0.00 68 1009.1
20260505061542 13 95 0.0 0.0 0.00 0.00 0.00 67 1009.1
20260505060042 13 95 0.0 0.0 0.00 0.00 0.00 66 1009.1
20260505054523 15 130 0.0 0.0 0.00 0.00 0.00 63 1009.1
20260505053034 15 247 0.0 0.0 0.00 0.00 0.00 62 1009.1
20260505051511 15 323 0.0 0.0 0.00 0.00 0.00 62 1009.1